Powrót do katalogu

NOAA 16 DEB

AktywnyPO
NORAD 41255·DEBRIS·🇺🇸 United States

Wystrzelony Sep 21, 2000 z Vandenberg Space Force Base

Loading…

Następne Przeloty (najbliższe 24 godziny)

TLE

ŚwieżeSource: Space-Track

Epoka: Sep 14, 2026, 08:56 UTC

1 41255U 00055FF  26257.37234728  .00006650  00000-0  13479-2 0  9998
2 41255  98.7736  50.8801 0028742  84.2585 276.1890 14.61334535562445

Śledź NOAA 16 DEB w czasie rzeczywistym z AllMySat

Download on the App Store